Regional Weather Roundup
Issued by NWS

Home | Current Version | Previous Version | Text Only | Print | Product List | Glossary Off
Versions: 1 2 3 4 5 6 7 8 9 10 11 12 13 14 15 16 17 18 19 20 21 22 23 24 25 26 27 28 29 30 31 32 33 34 35 36 37 38 39 40 41 42 43 44 45 46 47 48 49 50

657
ASUS43 KLSX 291410
RWRMO

WEATHER SUMMARY FOR MISSOURI
NATIONAL WEATHER SERVICE SPRINGFIELD MO
900 AM CDT MON AUG 29 2016

NOTE: "FAIR" INDICATES FEW OR NO CLOUDS BELOW 12,000 FEET WITH NO
       SIGNIFICANT WEATHER AND/OR OBSTRUCTIONS TO VISIBILITY.
       CURRENT SKY AND/OR WEATHER CONDITIONS ARE NOT AVAILABLE FOR
       CHILLICOTHE AND FARMINGTON.

MOZ001>031-035>038-043-044-053-054-291500-
...NORTHERN AND WESTERN MISSOURI...

CITY           SKY/WX    TMP DP  RH WIND       PRES   REMARKS
KANSAS CTY INT MOSUNNY   77  71  82 SE5       30.18R
KANSAS C DTWN  SUNNY     79  73  82 CALM      30.17R
LEE`S SUMMIT   PTSUNNY   77  72  84 CALM      30.19R
ST JOSEPH      SUNNY     76  71  85 CALM      30.18R
KIRKSVILLE     FOG       73  72  96 NE6       30.22R VSB 1/2

$$
MOZ066>068-077>081-088>096-101>105-291500-
...SOUTHWEST MISSOURI...

CITY           SKY/WX    TMP DP  RH WIND       PRES   REMARKS
SPRINGFIELD    SUNNY     81  71  71 SE8       30.19R
JOPLIN         SUNNY     79  71  76 SE5       30.17S
BRANSON        MOSUNNY   77  72  83 CALM      30.20R

$$
MOZ032>034-039>042-045>050-055>058-069>072-291500-
...CENTRAL MISSOURI...

CITY           SKY/WX    TMP DP  RH WIND       PRES   REMARKS
COLUMBIA       SUNNY     80  73  79 CALM      30.20R
JEFFERSON CITY SUNNY     78  74  87 CALM      30.18R FOG
ROLLA          SUNNY     79  73  82 SE3       30.20R
SEDALIA        SUNNY     80  73  79 S5        30.20R
WHITEMAN AFB   MOSUNNY   77  77 100 S1        30.18R
OSAGE BEACH    SUNNY     77  73  87 CALM      30.20R

$$
MOZ051-052-059>065-291500-
...EAST CENTRAL MISSOURI...

CITY           SKY/WX    TMP DP  RH WIND       PRES   REMARKS
ST LOUIS INTL  MOSUNNY   82  73  74 E8        30.20R
SPIRIT OF STL  SUNNY     81  76  84 E3        30.18
ST CHARLES     SUNNY     80  75  84 E6        30.19R

$$
MOZ072>076-082>087-097>100-106>115-291500-
...SOUTH CENTRAL AND SOUTHEAST MISSOURI...

CITY           SKY/WX    TMP DP  RH WIND       PRES   REMARKS
CAPE GIRARDEAU SUNNY     81  72  74 E5        30.17R
FARMINGTON     SUNNY     79  74  84 CALM      30.21R
POPLAR BLUFF   SUNNY     80  75  84 NE7       30.16R
WEST PLAINS    SUNNY     79  72  79 E5        30.21S

$$




USA.gov is the U.S. government's official web portal to all federal, state and local government web resources and services.